Regional Weather Roundup
Issued by NWS

Home | Current Version | Previous Version | Text Only | Print | Product List | Glossary Off
Versions: 1 2 3 4 5 6 7 8 9 10 11 12 13 14 15 16 17 18 19 20 21 22 23 24 25 26 27 28 29 30 31 32 33 34 35 36 37 38 39 40 41 42 43 44 45 46 47 48 49 50

000
ASUS43 KDTX 271510
RWRMI
MICHIGAN HOURLY REGIONAL WEATHER ROUNDUP
NATIONAL WEATHER SERVICE DETROIT/PONTIAC MI
1100 AM EDT WED MAY 27 2015

NOTE: "FAIR" INDICATES FEW OR NO CLOUDS BELOW 12,000 FEET WITH NO
SIGNIFICANT WEATHER AND/OR OBSTRUCTION TO VISIBILITY.

MIZ047>049-052>055-059>063-066>070-074>076-081>083-271600-
SOUTHEAST LOWER MICHIGAN

CITY           SKY/WX    TMP DP  RH WIND       PRES   REMARKS
ADRIAN         MOSUNNY   75  63  66 SW14G22   29.99S
ALMA           PTSUNNY   71  62  74 SW12G20   29.90R
ANN ARBOR      MOSUNNY   75  64  68 SW14G22   29.97S
BAD AXE        CLOUDY    72  60  65 SW16G30   29.90R
CARO           PTSUNNY   73  62  67 SW14G25   29.90S
DETROIT CITY   SUNNY     75  61  61 SW18G26   29.96F
DETROIT        MOSUNNY   77  63  61 SW18G28   29.98S
FLINT          MOSUNNY   76  61  59 SW21G29   29.92S
GROSSE ILE     SUNNY     75  64  69 SW13      29.97S
HILLSDALE      PTSUNNY   74  65  73 SW10G16   29.99S
HOWELL         MOSUNNY   75  62  63 SW13G23   29.95S

CITY           SKY/WX    TMP DP  RH WIND       PRES   REMARKS
JACKSON        PTSUNNY   73  62  68 SW16G28   29.96F
LAMBERTVILLE   MOSUNNY   77  63  61 SW9G17    30.00S
LANSING        MOSUNNY   73  61  65 SW20G29   29.93S
LAPEER         PTSUNNY   74  59  58 SW22G29   29.93S
MASON          PTSUNNY   72  59  64 SW13G22   29.94F
MONROE         MOSUNNY   75  64  69 SW15G21   29.97S
MT. CLEMENS    MOSUNNY   77  63  61 SW21      29.94S
PONTIAC        MOSUNNY   75  61  61 SW15G24   29.95S
PORT HOPE        N/A    N/A N/A N/A SW17G26   29.86S
PORT HURON     PTSUNNY   75  64  69 S14G20    29.95R
TRI CITIES     MOSUNNY   75  61  61 SW21G36   29.88F
MIDLAND        PTSUNNY   73  60  63 SW16G26   29.87S
TROY           MOSUNNY   76  62  62 SW13G20   29.97S
SAGINAW HB     PTSUNNY   72  61  68 SW21G26   29.89S
$$
MIZ043>046-050>051-056>058-064>065-071>073-077>080-271600-
SOUTHWEST LOWER MICHIGAN

CITY           SKY/WX    TMP DP  RH WIND       PRES   REMARKS
BATTLE CREEK   MOSUNNY   75  60  59 W24G32    29.95F
BENTON HARBOR  SUNNY     71  62  73 SW20G28   29.95S
BIG RAPIDS     CLOUDY    65  59  81 SW13      29.88R
COLDWATER      MOSUNNY   73  62  68 SW12G21   29.97F
FREMONT        CLOUDY    63  61  93 SW13      29.90R
HOLLAND        MOSUNNY   69  61  75 SW21G30   29.94S
GRAND RAPIDS   PTSUNNY   71  60  68 SW26G36   29.92R
IONIA          CLOUDY    73  60  64 SW24      29.91S
KALAMAZOO      PTSUNNY   74  61  63 SW15G23   29.95F
LUDINGTON      CLOUDY    58  54  86 SW15G21   29.89R
MARSHALL       MOSUNNY   74  61  63 SW15G26   29.95F
MOUNT PLEASANT PTSUNNY   71  61  70 SW14      29.87S
MUSKEGON       CLOUDY    60  56  86 SW18G29   29.92R
SOUTH HAVEN    SUNNY     70  61  72 SW16G31   29.95S
$$
MIZ016>042-271600-
NORTHERN LOWER MICHIGAN

CITY           SKY/WX    TMP DP  RH WIND       PRES   REMARKS
ALPENA         PTSUNNY   73  57  57 SW17G29   29.78S
BEAVER ISLAND  DRZL/FOG  47  46  99 SW9       29.78R VSB 1
BELLAIRE       CLOUDY    64  57  78 SW12G20   29.80R
CADILLAC       CLOUDY    65  57  77 SW15G24   29.85R
CHARLEVOIX     CLOUDY    53  53  99 W16G22    29.82R FOG
FRANKFORT      CLOUDY    56  49  78 SW9G17    29.84R
GAYLORD        CLOUDY    63  57  81 SW21G30   29.81R
GRAYLING       CLOUDY    68  55  64 SW9G20    29.82S
HARBOR SPRINGS DRIZZLE   52  52  98 W14G26    29.77R
HOUGHTON LAKE  CLOUDY    66  56  70 SW16G24   29.85R
MANISTEE       CLOUDY    63  54  72 SW14G23   29.87R
OSCODA         CLOUDY    71  61  70 SW15G30   29.82S
PELLSTON       LGT RAIN  57  56  96 SW15G25   29.76R FOG
ROGERS CITY    MOSUNNY   72  58  61 SW22G28   29.76S
TRAVERSE CITY  CLOUDY    64  56  75 SW12G23   29.80R
$$
MIZ007>008-015-271600-
EASTERN UPPER MICHIGAN

CITY           SKY/WX    TMP DP  RH WIND       PRES   REMARKS
KINROSS        CLOUDY    54  54 100 SW9G16    29.71R
MACKINAC ISLAN FOG       50  50 100 SW16G29   29.75R VSB 1/4
NEWBERRY       FOG       53  52  97 W14       29.73R VSB 1
S. S. MARIE    CLOUDY    57  54  89 SW13      29.69S
MUNISING         N/A     55  51  86 NW13      29.76R
$$
MIZ004>006-011>014-085-271600-
CENTRAL UPPER MICHIGAN

CITY           SKY/WX    TMP DP  RH WIND       PRES   REMARKS
MANISTIQUE     DRIZZLE   52  51  95 W5        29.76S
ESCANABA       CLOUDY    59  54  82 NW13G18   29.79R
MENOMINEE      CLOUDY    57  54  88 NW7       29.82R
SAWYER-GWINN   LGT RAIN  55  54  94 NW7       29.79R
$$
MIZ001>003-009>011-084-271600-
WESTERN UPPER MICHIGAN

CITY           SKY/WX    TMP DP  RH WIND       PRES   REMARKS
IRON MOUNTAIN  CLOUDY    57  54  89 W3        29.82R
HOUGHTON       PTSUNNY   60  52  74 W22G30    29.77R
COPPER HARBOR    N/A     63  54  72 VRB7      29.74S
IRONWOOD       PTSUNNY   64  57  77 W15       29.81S
$$

ABBREVIATIONS USED IN REMARKS
   TC - TEMPERATURE IN CELSIUS
  WCI - WIND CHILL INDEX
   HX - HEAT INDEX
  VSB - VISIBILITY



USA.gov is the U.S. government's official web portal to all federal, state and local government web resources and services.